Location: Las Navas
(40.6024°N, 4.3345°W)
Time: 08:45:47
(UTC+00:00)

Cosmos 2074 Rocket - Pass Details

Date: 03 April 2020
Orbit: 967 x 986 km, 82.9° (Epoch: 29 May)

Event Time Altitude Azimuth Distance (km) Brightness Sun altitude
Rises 20:39:31 0° 349° (N) 3,693 7.6 -21.5°
Reaches altitude 10° 20:42:03 10° 346° (NNW) 2,744 6.9 -21.9°
Maximum altitude 20:48:15 63° 267° (W) 1,089 4.4 -22.9°
Enters shadow 20:53:51 13° 189° (S) 2,524 5.9 -23.8°
